Theta_e
298 298 298 298 297 297 296 296 296 296 297 298 296 298 299 300 292 291 301 303 302 302 305 307 311 314 315 315 315 318 319 317 316 315 314 313 313 312 312 312 311 311 310 311 311 312 312 312 312 312 312 312 310 309 308 308 308 308 308 307 306 305 305 305 305 305 306 306 306 306 306 306 306 306 306 306 306 306 306 307 308 306 305 305 303 302 301
296 298 298 299 297 296 296 296 297 297 298 297 298 298 299 299 299 300 302 304 303 304 305 307 313 316 317 317 318 318 317 316 315 314 314 313 312 312 311 311 311 311 311 311 311 311 312 312 311 310 310 309 308 307 307 308 307 308 308 306 305 304 304 304 304 304 305 306 305 305 305 305 305 305 305 306 306 306 306 306 306 306 305 304 302 301 299
295 297 298 299 298 297 295 296 297 298 298 298 298 298 300 301 300 302 302 301 300 306 310 309 314 316 318 318 316 317 317 316 314 313 313 312 311 311 311 311 311 311 311 311 311 310 310 310 310 311 309 308 308 308 307 307 307 307 307 305 304 303 303 303 303 304 304 304 304 304 305 305 305 305 305 306 305 306 306 306 306 306 305 303 301 299 298
292 297 297 297 298 297 296 296 296 296 297 297 299 296 301 298 297 300 301 298 297 305 308 310 312 314 316 315 316 316 316 315 314 313 313 312 311 311 311 311 311 311 310 310 310 309 310 310 310 309 308 308 308 307 306 306 307 307 306 304 303 302 302 303 303 303 303 303 303 303 303 303 304 304 305 305 304 305 305 305 305 306 305 303 302 300 298
290 295 297 297 297 296 292 293 297 298 299 299 300 300 302 303 304 297 293 295 304 306 307 307 310 312 313 315 315 316 316 315 314 313 312 313 312 312 311 310 311 311 310 309 310 310 310 310 310 310 309 308 307 307 306 306 306 305 304 302 302 302 302 302 302 303 302 302 302 302 302 303 304 304 303 303 303 303 304 305 305 304 304 305 303 301 298
290 296 296 297 292 285 287 301 304 303 300 299 297 298 301 303 303 300 302 302 306 308 307 306 308 311 312 316 318 319 316 314 314 313 313 313 313 312 311 311 310 309 309 309 310 311 311 311 311 312 311 309 309 308 307 306 305 303 302 302 302 302 302 302 302 302 302 302 301 302 302 302 303 302 303 302 303 303 303 303 303 304 304 304 304 302 300
289 294 295 288 284 286 304 305 305 304 303 302 303 303 302 302 302 304 302 302 303 306 308 309 312 314 316 318 318 318 318 317 315 314 313 313 313 312 311 310 310 310 310 310 311 311 311 311 311 311 310 309 308 307 306 305 304 303 302 301 302 302 301 301 302 301 301 301 301 301 302 302 303 302 302 303 303 303 304 303 303 302 302 303 304 303 301
292 290 289 282 285 301 305 305 307 310 306 304 303 301 304 305 303 304 302 303 303 306 307 308 312 312 312 313 316 318 318 318 316 315 313 314 313 312 311 310 310 310 310 310 311 311 312 310 309 309 308 309 307 306 305 304 303 302 302 301 301 301 301 301 301 301 301 301 301 301 301 302 302 302 303 302 302 303 303 302 303 302 302 302 303 303 304
287 289 289 288 298 299 302 299 302 303 300 301 299 292 298 307 307 305 303 304 304 306 306 308 309 312 311 310 312 319 318 318 318 317 316 315 314 313 312 312 311 312 312 312 311 311 310 309 308 308 309 308 307 305 304 303 302 302 301 301 300 301 301 300 301 301 301 301 301 301 301 301 301 301 301 302 302 303 302 302 302 301 301 300 300 301 301
293 289 287 288 288 285 294 302 305 308 309 308 308 301 298 307 306 307 306 305 305 307 307 308 310 314 307 306 311 317 318 318 317 317 316 317 315 314 313 313 312 312 312 312 312 310 309 308 309 309 309 308 307 305 303 302 301 301 301 300 300 300 300 301 301 301 301 300 301 301 301 301 301 302 302 303 303 304 302 301 301 301 301 300 299 299 299
290 289 286 286 285 288 298 302 305 308 307 308 309 300 293 303 306 306 306 305 307 307 306 309 314 309 303 306 310 317 318 318 317 316 315 315 315 314 312 311 311 311 311 311 311 310 309 307 308 309 308 307 306 303 302 302 301 300 300 300 300 300 300 301 301 301 301 301 301 301 301 301 302 302 302 302 303 304 303 303 302 302 301 301 301 300 299
290 289 287 286 289 290 301 305 305 305 307 310 303 288 289 304 307 306 306 306 307 308 308 313 313 309 300 306 311 318 318 317 318 316 315 314 314 313 312 312 312 311 311 311 309 308 308 308 309 309 307 306 304 302 301 301 300 300 300 301 301 301 301 301 301 301 302 302 301 301 301 302 302 302 303 303 303 302 302 300 299 300 301 301 301 301 301
289 288 289 290 290 300 308 306 308 308 313 305 291 286 293 310 313 310 308 307 308 309 308 315 310 313 317 320 316 319 318 317 316 317 316 315 314 312 311 311 309 311 311 310 308 308 308 309 308 307 306 304 302 302 301 301 300 301 302 302 301 301 301 301 301 301 302 302 302 302 302 302 302 303 304 304 305 305 303 302 302 303 303 302 301 301 302
288 290 288 288 291 304 309 310 309 311 305 291 290 308 310 312 312 311 311 310 310 310 311 313 315 317 317 319 320 318 317 316 317 316 315 314 313 313 312 310 310 310 310 309 309 308 308 308 307 305 304 302 301 301 300 300 301 302 302 302 302 301 301 301 301 301 302 302 303 303 302 302 302 302 303 303 304 303 302 303 304 303 304 303 302 301 301
292 290 288 287 284 299 312 308 306 309 295 296 308 312 313 314 313 312 312 312 312 312 313 317 317 317 318 318 317 317 317 316 315 315 314 313 312 312 311 310 310 310 309 308 308 308 308 308 305 304 302 301 300 301 300 301 302 302 302 302 302 302 301 301 302 302 302 303 303 303 303 303 302 302 304 304 305 303 302 302 303 302 303 303 302 302 302
289 288 286 287 298 305 313 307 298 304 311 314 315 313 310 312 313 313 312 314 316 316 316 316 317 318 317 317 316 316 316 316 316 315 315 314 313 312 312 311 310 309 308 308 308 308 308 306 304 303 302 300 300 300 300 302 302 302 302 302 301 301 301 301 302 301 302 302 303 303 303 302 302 302 302 303 302 303 302 302 301 301 300 301 302 302 302
292 291 295 304 311 310 311 312 311 313 315 315 317 315 314 312 311 315 314 317 318 318 318 318 317 315 316 315 316 314 314 315 314 314 314 313 312 311 311 310 310 309 309 308 308 307 306 305 303 302 302 301 300 300 301 302 302 301 301 301 301 301 301 301 301 301 302 302 302 302 302 303 302 301 302 303 302 303 303 304 302 300 300 299 302 301 302
303 305 307 309 308 310 312 314 315 314 313 315 316 315 313 314 315 316 316 317 319 319 319 316 316 316 316 315 315 315 315 314 314 314 315 313 313 312 311 310 309 309 309 308 307 306 304 304 303 302 302 301 300 301 302 302 302 302 301 301 301 300 300 301 301 301 301 301 301 302 303 302 302 302 302 302 301 301 301 302 302 303 300 300 298 298 301
297 292 306 305 305 310 312 311 314 316 314 314 315 316 316 316 317 317 319 319 319 319 319 317 316 316 316 315 315 315 315 314 314 313 313 313 312 311 310 309 308 309 309 307 306 306 303 303 302 302 302 301 302 302 302 302 302 301 301 301 300 300 300 300 300 300 300 300 300 301 302 301 302 302 302 303 305 302 302 302 302 301 300 300 300 299 299
294 295 305 310 309 311 311 310 309 309 312 313 315 316 316 316 318 319 319 320 318 319 317 317 316 316 316 315 314 314 314 314 314 313 313 312 311 312 312 310 309 309 309 306 306 305 302 302 302 302 301 301 302 302 302 302 301 301 301 300 300 300 299 299 299 300 300 294 298 300 301 301 301 300 302 302 302 303 301 302 303 301 299 299 299 300 300
300 302 308 309 308 308 308 309 311 312 312 313 313 314 313 314 315 314 316 319 318 319 317 317 317 315 315 315 315 314 314 313 313 313 313 313 313 311 310 309 309 309 308 306 304 304 302 302 302 302 301 302 302 302 302 302 302 301 300 299 300 299 299 299 299 300 300 299 299 299 300 301 302 303 303 304 302 296 299 297 297 298 300 299 298 300 300
294 296 302 304 297 295 305 309 310 312 313 314 313 313 312 312 313 314 314 316 318 320 318 317 316 315 315 316 316 314 313 313 314 313 312 311 312 311 310 309 310 309 308 307 304 303 302 302 302 301 302 302 302 302 301 302 302 301 300 300 300 299 299 299 299 299 299 298 299 299 300 300 299 297 291 293 297 296 294 289 287 289 293 297 299 299 300
296 303 306 308 308 306 309 311 312 313 314 313 313 311 311 312 313 314 314 314 314 316 317 318 316 315 314 314 314 314 313 313 314 314 313 311 311 310 310 309 309 308 308 306 304 303 302 302 301 301 302 302 302 302 302 302 302 301 301 299 299 299 299 298 298 299 299 298 299 300 300 301 300 297 296 296 291 292 293 292 290 287 286 284 282 287 295
306 308 308 310 308 305 308 311 313 312 315 313 312 313 313 313 314 314 314 314 313 314 315 316 317 316 315 314 314 313 313 314 314 313 312 312 311 310 309 308 308 307 305 304 303 302 302 302 301 301 302 302 302 302 302 302 301 301 301 300 298 298 299 299 297 298 299 298 299 301 299 300 300 297 296 295 296 291 290 290 289 287 287 285 285 285 285
306 310 310 309 310 311 312 312 312 314 313 313 313 313 314 314 314 315 313 314 314 314 314 314 316 316 314 313 314 314 313 313 313 313 310 308 308 309 308 307 307 305 304 304 303 302 302 301 301 301 301 301 301 301 302 301 301 301 301 301 299 299 299 299 298 298 298 297 299 302 300 299 299 296 294 294 294 294 293 290 289 289 289 289 288 288 288
311 311 310 310 309 310 311 309 310 311 312 312 313 313 313 310 312 313 314 314 314 315 315 314 314 315 314 313 313 313 314 312 309 309 310 309 308 307 307 306 305 304 304 303 302 301 301 300 300 301 301 301 301 301 301 302 301 301 302 301 300 300 300 299 299 299 300 299 299 301 302 300 300 297 296 296 295 294 293 293 294 291 290 289 289 288 288
310 310 309 306 305 308 308 309 308 311 312 313 313 313 313 313 311 312 313 314 314 315 314 314 314 315 315 314 312 314 312 311 310 310 310 308 307 306 306 305 304 302 301 302 302 301 299 300 300 300 300 300 301 302 302 302 301 301 302 302 302 296 293 295 300 299 300 302 301 301 301 301 300 299 300 299 298 296 294 293 292 292 293 294 291 289 291
308 309 308 306 305 306 308 310 311 311 311 312 311 311 311 311 310 310 311 311 312 313 314 314 314 313 312 311 310 309 309 309 307 307 307 306 306 305 304 304 302 301 301 301 300 299 299 300 300 299 299 300 301 302 302 302 301 301 301 302 303 301 302 300 300 300 300 302 301 301 301 301 301 300 299 300 298 297 296 296 295 295 295 296 295 291 290
308 308 308 310 311 311 309 309 309 310 310 312 311 311 311 309 309 310 310 310 311 312 311 313 313 312 310 309 310 308 307 307 306 305 305 305 304 303 303 302 301 300 299 298 298 298 299 299 300 300 299 300 301 301 302 302 301 301 301 301 302 302 301 302 302 300 301 302 302 302 297 298 298 299 299 299 299 299 300 299 297 297 299 297 297 298 292
308 309 308 308 308 308 306 306 307 308 309 308 309 309 310 309 308 308 309 309 310 310 310 312 310 308 309 309 309 308 306 306 305 304 303 303 303 303 301 301 300 300 299 299 299 300 300 300 300 299 299 300 301 301 301 301 301 302 301 302 302 301 301 302 302 301 301 302 301 294 298 299 300 300 299 300 299 298 299 298 298 298 300 298 295 295 294
308 308 309 308 307 306 305 306 307 307 307 307 308 307 308 308 308 308 308 309 309 309 309 310 309 308 309 308 308 308 307 305 304 303 303 302 302 301 301 301 299 297 297 298 299 300 300 299 299 298 299 299 300 300 301 301 301 302 302 301 302 296 293 293 296 300 300 300 299 299 299 299 300 299 295 297 298 298 298 299 298 298 296 298 297 296 297
307 306 306 306 305 304 304 306 305 306 306 306 305 305 306 307 306 307 307 307 308 309 308 309 308 308 308 308 308 306 305 304 303 303 302 302 302 301 302 302 301 297 300 300 300 300 300 298 298 299 299 299 300 300 301 301 301 301 301 297 301 300 294 292 297 298 298 300 300 299 297 298 299 299 298 298 298 297 298 297 298 295 296 296 296 297 299
304 303 302 303 302 303 303 305 305 305 306 305 305 306 307 308 308 307 308 307 307 308 308 308 308 309 309 308 308 306 305 304 303 302 302 301 301 301 302 302 301 301 301 301 301 301 299 298 298 300 300 300 301 301 302 302 302 301 301 301 301 301 293 292 294 298 298 299 299 299 298 297 298 298 298 299 298 296 299 297 298 298 298 298 299 300 300
304 303 304 305 305 303 303 304 305 304 305 306 307 306 307 307 308 308 307 307 307 307 307 308 309 309 308 307 307 305 304 302 300 299 300 300 301 302 302 300 301 301 301 301 302 300 300 300 301 302 302 302 302 302 302 303 302 302 302 301 301 300 297 297 295 297 298 298 299 299 298 298 298 298 296 297 298 299 295 295 296 295 297 298 299 300 293
307 307 307 307 307 306 306 304 305 304 304 304 306 306 307 308 307 307 307 307 307 307 308 308 308 307 307 306 306 304 303 301 298 299 297 298 301 302 301 301 301 301 300 299 299 300 301 302 302 302 302 303 302 302 302 303 303 302 303 302 300 299 298 297 298 297 297 298 299 300 299 299 298 295 297 298 299 299 296 295 296 297 296 296 297 299 293
307 306 306 305 306 306 305 305 305 305 305 304 305 306 306 306 306 307 306 307 308 308 308 307 307 306 306 305 304 303 302 298 294 294 297 297 300 301 301 300 300 299 299 300 302 303 303 303 295 295 303 303 302 303 303 303 303 302 302 302 300 299 298 298 298 298 297 299 298 299 300 297 297 298 298 298 298 299 298 298 297 296 296 296 297 298 296
307 306 306 306 306 306 306 306 305 305 305 305 305 305 305 306 306 307 307 307 308 308 308 307 307 305 304 305 304 304 301 298 297 297 297 297 300 300 300 299 299 299 299 299 301 302 301 301 294 291 298 302 301 302 302 293 302 301 301 302 302 300 300 299 300 299 298 298 298 298 297 296 299 299 298 298 298 297 296 297 295 296 297 295 295 295 294
303 305 306 306 306 306 306 306 305 305 305 305 305 305 305 306 306 306 307 307 307 308 308 307 306 306 305 305 303 299 295 297 297 297 297 298 300 299 299 298 298 299 298 299 302 302 301 298 291 294 301 302 301 302 299 290 293 301 301 301 301 301 300 300 299 298 297 298 295 298 298 297 297 298 298 298 297 297 296 297 296 297 296 296 297 296 295
305 306 307 306 306 305 306 306 306 305 305 304 305 305 306 306 306 306 307 306 307 307 307 306 307 305 304 303 300 299 298 294 295 298 299 299 300 299 298 300 300 301 301 302 302 302 301 298 298 300 301 302 303 303 298 290 290 301 302 303 303 301 300 300 300 298 298 298 297 297 298 298 298 298 297 298 297 296 294 297 297 295 296 297 297 297 296
305 305 305 305 304 305 305 305 304 305 305 306 305 305 305 305 306 306 306 306 306 305 306 306 305 303 302 302 300 299 298 298 299 300 300 300 300 299 300 300 301 302 301 295 301 302 298 292 298 301 301 302 303 303 299 293 292 299 302 302 302 301 301 300 300 300 299 299 297 293 296 296 297 298 296 297 297 296 297 296 296 295 296 296 297 297 296
305 305 305 305 305 305 305 305 304 305 305 305 305 306 306 306 306 305 305 305 305 306 306 305 304 303 303 302 301 300 300 299 300 301 302 301 300 299 298 299 302 303 302 302 302 300 296 295 299 301 301 302 303 299 300 292 297 301 301 301 301 301 301 301 300 300 299 299 297 298 298 298 297 297 297 298 297 297 297 297 297 297 297 296 297 297 297
306 306 305 305 305 305 305 306 305 304 305 306 305 306 307 307 306 305 305 306 305 305 306 305 299 304 304 303 302 301 300 300 301 301 302 301 300 299 298 300 303 304 297 296 296 297 298 300 300 296 302 302 301 294 293 296 301 301 301 300 301 300 301 300 300 300 300 299 300 300 299 299 299 298 298 298 298 297 297 297 297 297 298 297 297 297 297
306 306 305 305 305 305 305 305 305 305 305 305 306 306 306 306 306 306 306 305 305 305 305 305 303 300 302 303 302 301 300 301 301 302 302 304 304 304 302 303 305 305 292 297 301 303 302 302 302 302 297 299 301 290 291 300 301 301 301 300 299 300 300 301 301 300 301 300 300 300 300 299 299 299 297 298 298 298 297 297 297 297 296 298 298 298 297
306 306 306 305 305 305 305 305 305 305 304 305 306 306 307 306 306 305 305 304 305 305 305 304 304 304 303 303 302 301 300 301 301 301 301 302 303 305 306 304 304 299 291 298 302 302 303 302 303 299 291 292 291 289 298 301 302 301 301 300 299 299 299 301 302 301 301 300 299 300 299 298 298 299 299 298 298 298 297 297 298 298 297 297 298 297 298
307 307 306 306 306 305 305 304 304 304 305 306 306 306 306 305 306 306 306 305 304 304 304 304 304 304 304 304 303 303 303 303 303 302 301 300 299 301 305 298 303 300 296 293 301 302 303 304 299 292 291 288 288 291 301 302 302 301 301 300 300 299 299 299 299 300 300 301 300 299 298 298 299 298 299 298 295 297 298 297 298 298 297 298 297 297 298
307 307 307 301 306 305 305 306 306 306 305 305 305 304 305 306 306 306 306 305 305 305 306 305 305 305 306 305 305 305 305 304 305 305 305 304 302 303 305 299 302 296 294 293 301 303 303 296 291 289 289 288 289 296 302 301 300 302 302 302 301 299 299 299 299 299 299 299 299 299 299 299 299 299 299 299 299 298 297 294 295 298 298 298 299 298 298
307 307 307 307 307 307 306 306 306 305 304 304 303 303 304 305 305 305 305 306 306 306 306 306 306 306 307 307 305 304 303 303 304 305 306 306 305 302 297 295 296 292 292 299 301 302 302 298 290 289 289 288 290 301 302 302 301 301 301 301 301 301 300 300 300 300 300 299 298 298 295 297 299 299 297 297 298 297 297 296 297 297 297 296 296 297 295
306 306 307 306 306 306 307 306 305 304 303 303 303 305 304 305 305 305 306 306 305 306 306 306 306 306 306 307 307 307 307 305 301 303 306 306 306 305 302 303 300 291 292 293 294 294 291 290 289 288 288 288 294 301 302 301 301 301 301 301 301 301 301 300 301 300 300 299 298 299 299 299 299 299 298 298 299 298 298 297 297 296 298 297 297 297 297
307 306 307 307 306 306 305 305 304 302 304 304 303 304 304 305 305 304 304 305 305 305 305 305 305 306 306 305 307 307 306 307 305 303 305 306 306 306 305 296 290 289 294 300 302 301 290 288 288 288 288 289 299 301 301 301 299 300 300 300 300 301 301 300 300 300 300 299 300 299 300 299 300 299 299 298 297 298 297 297 299 298 295 298 297 295 296
307 307 306 306 306 305 305 304 304 304 304 305 304 304 305 304 302 303 303 304 304 302 304 304 305 305 306 305 306 306 307 307 306 306 305 305 306 306 304 302 298 292 293 300 303 301 288 287 288 288 289 296 300 300 300 300 300 299 299 299 298 300 298 296 294 295 299 299 300 299 299 299 300 298 297 298 298 298 297 297 295 294 292 293 295 295 296
306 305 305 304 306 307 307 306 306 305 306 305 306 304 304 303 302 302 303 304 304 302 303 303 304 305 305 305 305 305 306 306 305 301 305 304 304 300 299 299 297 294 296 298 301 302 298 296 296 291 292 297 300 300 299 299 299 298 296 298 299 298 299 297 297 300 300 299 299 299 300 300 300 301 300 299 298 297 297 296 296 296 296 296 296 296 297
306 307 308 307 307 307 307 307 307 307 306 306 306 304 304 303 303 303 303 297 303 303 303 303 302 304 305 305 303 304 305 305 304 304 300 302 303 303 300 294 299 296 298 301 302 303 301 298 293 290 292 298 299 299 294 293 298 298 298 296 296 298 297 297 297 298 299 300 299 299 298 299 299 299 298 298 297 298 296 297 296 296 296 297 298 297 297
Wind_Speed
13 17 19 15 11 14 16 18 12 12 14 15 12 7 10 10 6 6 10 11 9 10 10 8 9 10 11 13 13 15 15 16 15 16 19 19 19 18 18 16 16 16 15 14 14 13 12 13 13 13 12 14 12 11 11 11 10 10 10 10 10 10 9 9 8 8 7 7 6 7 7 7 7 6 6 6 6 6 5 5 4 5 7 6 7 8 7
15 10 6 8 17 15 15 17 14 13 11 12 13 11 10 9 8 8 5 12 10 13 14 12 11 10 10 11 13 16 16 16 17 17 17 19 19 20 20 19 18 17 16 15 15 13 14 16 16 14 11 11 12 13 11 10 10 10 10 10 10 10 10 9 8 9 8 7 8 8 8 8 7 7 6 6 6 6 6 6 5 5 6 7 8 7 7
9 7 11 6 10 18 15 14 16 15 14 12 15 14 11 9 9 6 8 6 6 9 13 11 12 10 10 10 13 17 17 17 16 16 15 17 18 19 19 18 18 17 17 16 15 15 13 14 14 13 13 13 12 11 10 11 11 11 11 10 10 10 10 10 9 9 8 8 8 8 8 7 7 7 7 6 6 7 6 5 5 5 5 7 7 7 8
6 4 2 9 13 20 15 16 17 17 15 12 8 8 7 9 8 6 7 7 5 1 6 9 13 15 16 16 15 14 15 17 17 16 17 17 17 18 19 18 18 18 18 17 17 17 16 13 13 12 12 12 12 11 11 11 11 11 10 10 11 11 10 10 10 10 8 9 9 9 8 8 8 8 7 7 7 6 6 6 4 4 5 6 7 7 6
5 6 8 8 5 3 10 10 13 15 11 10 9 11 10 9 7 7 4 8 3 7 4 6 13 15 15 14 15 15 15 16 18 18 18 19 19 19 19 19 17 18 17 13 14 14 13 13 13 15 14 13 12 12 11 11 10 11 10 10 11 11 10 10 10 9 9 9 9 8 8 8 7 7 7 7 7 7 6 5 4 5 4 4 6 7 6
6 11 9 2 2 5 4 1 6 9 11 16 13 11 10 9 8 6 7 7 6 6 9 8 11 14 13 12 11 11 15 16 17 17 18 18 19 19 17 19 17 14 13 12 12 13 14 13 11 10 13 12 12 11 11 11 11 11 12 11 10 11 10 10 10 9 9 9 9 9 8 8 7 8 7 7 6 6 5 5 5 4 4 4 4 6 6
5 8 8 4 7 5 6 5 5 8 9 7 6 8 12 14 15 11 11 11 12 9 8 10 10 13 13 11 11 13 15 17 17 20 20 20 20 19 18 18 17 16 15 15 15 15 14 13 10 11 12 10 11 11 10 11 11 11 11 12 10 10 10 10 10 9 10 9 9 9 8 8 7 7 7 6 6 5 4 5 5 4 4 3 3 4 6
3 5 6 6 6 5 5 6 5 8 8 7 5 8 7 7 11 12 13 12 13 9 10 10 12 13 14 14 16 16 16 17 17 18 17 19 21 20 19 19 17 17 18 18 16 15 10 12 11 12 11 11 11 11 11 11 11 11 11 11 11 10 10 10 10 10 10 9 9 8 9 8 8 7 6 5 5 4 4 4 4 4 4 3 3 3 3
6 5 7 6 8 7 6 3 5 4 8 8 6 2 7 6 6 8 10 12 12 9 11 10 9 11 11 11 11 15 17 17 17 19 18 18 20 19 17 18 17 16 16 14 13 12 11 13 13 12 12 12 12 11 12 11 12 11 11 11 11 10 10 10 10 10 10 10 9 9 8 8 8 7 6 5 5 4 5 4 4 4 4 4 3 3 3
5 7 7 6 6 6 5 8 6 7 7 5 5 6 6 7 12 10 9 9 11 9 9 8 8 8 10 10 9 13 16 17 16 15 15 18 20 19 16 15 14 13 13 12 12 13 13 14 13 12 12 12 13 12 12 12 12 12 11 11 11 11 10 10 10 10 10 10 9 9 8 8 7 6 5 4 4 4 4 4 5 5 5 5 5 4 4
4 5 6 5 5 4 5 13 10 11 5 5 3 5 10 7 10 11 12 13 12 10 10 5 9 9 10 9 9 12 14 16 17 17 18 18 19 18 15 17 15 14 13 14 14 14 14 16 13 13 12 14 13 12 12 12 12 12 12 12 11 11 11 10 10 10 9 9 9 8 9 8 6 6 5 4 3 3 3 3 4 4 4 4 5 4 4
4 4 4 5 2 1 8 3 13 11 8 3 4 7 6 5 10 13 13 14 12 10 11 8 12 11 6 11 8 14 16 17 17 17 20 21 19 19 17 17 17 17 16 16 16 16 17 15 14 16 15 14 13 13 13 12 12 12 12 11 11 10 11 10 9 9 8 8 8 8 8 7 6 5 4 4 4 5 5 4 4 4 3 3 3 3 5
5 6 5 3 1 1 3 7 7 7 3 6 6 8 1 5 9 8 13 13 12 10 10 10 9 9 2 1 10 18 18 17 16 15 18 20 21 22 20 20 17 18 18 16 16 17 13 13 15 15 13 13 13 13 12 12 13 12 11 11 12 11 10 10 10 10 8 8 8 7 6 6 5 4 3 3 2 2 3 4 3 3 3 4 4 4 3
7 6 7 5 2 5 6 6 8 6 6 4 7 1 4 6 5 2 3 8 9 9 6 8 6 5 6 8 13 16 18 17 17 18 21 22 21 20 19 18 17 16 16 16 17 17 14 14 14 13 13 13 13 13 13 12 12 12 12 12 11 11 11 11 10 10 9 8 7 6 6 6 5 4 4 3 3 3 4 3 3 3 3 3 3 3 4
5 4 6 5 8 2 7 10 8 6 4 1 2 2 1 4 4 3 3 3 4 5 5 11 9 9 11 13 15 15 15 17 17 21 22 22 22 23 21 17 17 17 16 16 18 16 16 15 14 14 15 15 13 13 13 13 12 12 12 12 12 11 11 11 10 9 8 8 6 6 5 5 5 5 3 3 3 4 4 4 3 3 2 2 3 2 3
5 5 5 1 3 6 5 8 2 6 3 2 3 4 2 3 3 1 1 2 2 9 13 10 9 11 13 13 15 15 15 15 16 17 18 20 21 20 17 18 19 19 18 16 14 15 14 14 14 14 15 14 14 14 14 13 12 12 12 12 12 11 10 11 10 9 9 7 6 6 6 5 5 4 4 3 4 4 5 5 5 5 4 4 3 2 2
5 2 3 5 3 6 6 3 5 4 3 2 4 5 6 5 4 7 2 4 6 11 10 10 10 11 11 15 16 16 16 16 17 19 20 22 21 21 22 20 19 19 19 19 16 15 14 16 14 14 14 15 15 15 14 13 13 14 13 12 11 11 11 11 10 10 8 7 7 6 5 5 4 4 4 4 3 3 3 3 3 3 4 3 2 3 1
4 6 8 6 7 5 6 3 3 3 2 4 4 6 4 6 4 2 3 3 5 8 9 9 9 9 11 13 13 14 15 16 16 16 20 20 17 21 21 18 19 19 18 17 18 18 18 18 14 13 14 14 15 14 14 13 14 13 13 12 12 12 12 11 10 11 9 9 8 6 5 4 4 4 4 4 4 4 4 3 2 1 2 1 3 3 2
1 3 7 4 5 8 6 5 1 3 0 3 2 5 6 5 5 4 4 5 5 7 9 8 8 9 11 12 11 13 14 15 16 18 18 20 20 20 21 18 18 17 18 18 17 17 17 15 14 14 15 14 14 14 14 14 14 14 13 13 12 11 11 11 10 10 9 7 7 6 5 5 5 5 5 3 2 3 3 2 2 1 2 1 2 2 3
4 2 6 6 5 4 6 3 2 4 2 3 4 5 4 5 4 6 6 5 6 7 8 7 7 9 10 12 11 12 13 14 16 14 17 19 17 18 19 19 19 17 17 18 18 20 16 15 14 14 15 16 17 15 15 15 14 13 13 13 12 12 12 10 8 9 8 9 9 5 4 5 3 4 3 3 3 1 3 3 1 2 4 3 3 2 2
5 5 7 1 4 2 1 4 2 1 2 4 4 3 3 3 5 4 2 2 6 5 7 7 7 9 10 11 12 13 13 13 15 17 14 16 21 22 18 20 18 16 15 17 17 17 15 14 14 14 15 15 17 16 14 14 13 13 12 12 11 12 11 9 8 8 7 7 6 5 4 5 3 2 1 1 5 6 4 3 4 4 4 5 4 3 3
3 2 4 5 3 0 2 4 2 2 4 2 3 1 1 1 2 4 4 4 5 6 8 7 9 10 9 10 10 12 11 12 14 13 16 18 17 16 18 16 15 13 17 16 19 17 15 15 15 15 15 15 15 16 14 14 13 13 12 11 11 11 9 8 8 8 7 7 6 6 5 5 7 5 7 10 8 6 4 3 8 7 6 4 2 2 3
2 3 6 4 6 3 3 2 2 2 3 3 1 1 1 2 2 3 4 5 5 6 7 7 9 10 10 11 9 8 9 9 9 10 17 18 15 19 16 18 17 13 14 17 18 16 15 15 15 15 14 15 15 14 14 13 13 13 12 10 10 9 8 7 8 7 8 7 6 6 6 5 7 7 6 7 9 13 9 7 8 7 8 6 4 3 2
5 3 3 4 4 5 4 3 3 1 2 1 1 1 2 1 2 3 2 4 4 5 7 7 8 10 11 12 11 12 10 9 9 11 14 14 18 16 14 16 15 13 14 16 17 16 15 15 15 15 15 15 15 14 13 12 12 11 10 10 9 8 8 7 9 8 7 7 6 4 7 5 6 6 6 5 2 3 5 9 8 8 7 5 4 3 4
2 3 3 2 3 4 6 5 3 3 2 2 3 2 2 2 1 3 2 3 3 5 6 7 8 9 11 9 8 5 9 9 7 9 17 16 14 14 14 16 13 14 15 15 14 14 14 15 15 15 16 15 14 13 13 13 12 11 9 8 9 8 8 8 8 7 8 8 6 4 6 6 6 6 6 6 6 4 1 4 2 0 2 3 5 6 5
3 3 4 3 4 4 1 3 5 2 3 1 2 3 4 6 8 2 1 3 2 4 6 7 7 9 8 9 8 5 7 12 11 10 12 10 13 13 14 15 11 11 12 11 11 11 13 15 16 15 15 15 13 13 13 12 12 10 9 9 10 8 7 9 9 6 4 7 6 5 4 6 6 8 8 7 8 7 6 4 2 2 5 7 7 6 7
2 1 1 2 5 5 3 4 4 4 3 3 2 3 2 2 1 2 1 3 2 4 4 6 8 5 4 9 7 5 7 11 12 11 11 11 12 10 10 10 12 13 13 11 9 9 10 11 11 12 14 14 13 12 13 13 12 11 10 8 8 9 10 10 8 7 5 6 7 5 4 5 5 6 6 9 9 8 8 8 7 7 7 8 9 12 11
2 3 1 3 5 4 4 4 4 1 2 2 2 3 4 3 4 5 4 4 3 4 2 7 4 6 8 10 12 12 13 12 10 10 10 10 10 11 13 14 15 14 12 9 9 10 11 7 9 12 13 12 12 12 14 13 13 12 11 8 8 8 7 8 8 7 6 4 5 5 5 5 4 4 4 3 5 10 9 9 8 7 6 7 8 12 17
3 5 3 4 6 5 3 2 2 3 3 2 2 1 3 3 4 4 4 3 4 4 4 6 6 9 11 9 10 11 11 11 12 12 11 11 10 11 15 16 14 13 12 12 13 13 10 6 8 8 10 10 11 12 12 13 12 11 9 8 7 8 8 8 8 7 7 5 6 6 5 4 4 4 4 3 3 3 3 3 5 5 4 7 7 4 7
5 4 2 3 2 3 3 4 4 3 4 2 2 2 2 4 6 5 3 4 3 4 5 4 11 11 10 9 10 11 12 12 12 11 11 12 12 11 15 15 15 12 11 9 9 10 11 9 9 10 9 9 10 10 11 10 10 11 10 9 8 7 8 8 6 7 6 5 6 6 5 4 5 5 4 4 5 4 3 4 5 4 3 3 8 7 8
4 3 3 3 1 1 1 3 3 2 1 2 1 2 2 3 4 4 7 4 4 4 7 7 11 11 10 9 8 9 10 10 11 12 12 12 11 15 16 17 16 14 13 12 11 7 6 10 10 9 10 10 11 10 10 10 9 9 10 9 8 10 13 12 8 6 6 5 6 5 4 4 4 3 5 4 4 3 4 3 2 2 2 3 3 5 8
5 4 3 2 2 2 2 2 1 2 3 1 1 3 3 3 4 3 2 7 5 6 9 7 9 11 10 9 9 10 11 11 11 12 12 12 10 13 13 12 13 14 13 12 9 7 8 10 10 10 11 11 11 12 10 11 10 9 8 8 7 7 11 14 7 5 6 6 4 6 4 4 3 3 3 4 4 5 4 4 4 4 5 5 4 4 3
3 3 5 4 2 2 2 2 2 2 2 1 0 1 1 2 3 3 7 6 5 8 6 7 6 7 7 8 9 11 11 12 11 12 12 12 12 12 11 11 13 14 12 11 9 8 10 10 10 10 12 12 12 12 10 10 9 8 8 8 7 8 10 11 10 6 4 5 5 6 5 5 4 4 4 4 4 3 3 3 3 3 2 3 3 3 1
3 3 4 2 2 1 2 4 7 2 2 1 2 1 1 2 2 3 2 5 4 6 7 6 6 7 7 6 7 10 11 11 10 10 12 13 14 12 12 12 12 13 12 12 9 9 9 10 11 10 12 11 11 9 9 10 8 8 8 8 7 8 10 8 10 7 5 4 4 7 7 7 7 5 4 4 4 4 4 4 3 3 3 4 4 3 8
2 3 1 3 4 2 2 4 6 1 2 1 1 2 1 2 5 1 4 5 5 6 6 8 7 7 6 5 8 10 12 10 9 12 10 11 12 13 13 13 12 13 14 14 13 11 12 10 8 8 10 8 10 9 8 9 8 6 7 7 6 7 10 9 8 7 6 5 4 4 6 6 6 6 6 5 5 5 5 4 4 4 3 4 3 1 6
1 1 2 1 3 2 2 0 1 5 4 1 3 5 4 2 0 7 3 3 6 7 8 7 7 7 7 7 8 10 10 7 7 9 11 10 12 12 13 13 14 14 14 12 9 8 9 7 9 8 8 10 10 10 9 8 9 7 7 7 6 7 9 8 9 7 7 6 7 5 4 6 5 5 6 5 4 4 4 6 7 7 5 4 3 3 4
2 1 3 4 1 4 3 1 1 2 2 2 5 3 1 2 3 5 3 6 5 6 7 6 6 8 9 8 8 8 8 10 9 11 9 8 11 12 13 12 13 14 13 10 10 10 10 7 10 13 7 8 10 9 10 11 8 8 8 7 7 8 9 9 8 8 8 7 7 6 6 4 5 5 4 4 4 5 5 4 3 5 5 6 6 6 4
2 4 2 1 3 3 1 3 1 3 0 3 1 2 2 3 3 4 4 6 6 6 6 6 7 7 8 8 7 8 6 10 10 12 12 12 12 13 12 12 11 11 11 10 10 11 10 11 14 12 9 8 8 9 9 12 10 9 8 9 9 8 8 9 9 8 8 8 7 6 6 7 6 6 6 6 6 5 5 5 5 4 4 5 6 6 6
4 3 3 3 4 2 3 2 3 1 1 1 2 2 3 3 4 3 5 7 6 6 6 6 7 8 9 9 8 9 9 7 8 10 11 11 11 12 11 9 9 10 9 10 11 10 11 9 8 11 9 9 11 11 13 17 14 11 8 8 8 7 7 7 8 9 9 8 8 7 7 7 7 7 6 6 7 7 7 8 6 5 5 4 4 4 5
3 4 3 3 3 3 2 2 2 1 2 1 3 3 3 3 4 4 5 5 6 6 6 7 8 7 8 9 10 11 11 12 11 12 13 13 12 10 8 9 10 11 11 13 12 8 10 9 7 7 8 9 10 9 12 16 14 10 8 6 7 6 6 7 7 7 8 8 8 10 9 7 7 7 6 6 6 6 6 7 9 8 6 5 5 5 5
5 3 3 3 2 2 3 3 3 2 2 3 3 4 4 4 5 5 6 5 6 6 7 7 8 8 9 10 10 11 12 11 12 13 12 12 12 11 10 10 11 11 11 11 12 10 12 11 10 9 10 10 10 10 13 18 15 11 8 7 7 8 7 7 7 7 6 7 8 7 8 8 7 7 7 7 7 6 6 6 6 6 8 8 8 7 5
3 5 2 2 2 4 3 3 2 3 3 3 2 4 5 4 4 5 6 6 7 7 8 9 8 9 9 10 10 11 12 12 12 12 12 11 11 9 10 9 11 11 15 16 15 12 12 13 13 11 11 10 9 12 16 13 12 12 10 8 7 7 8 8 7 7 7 6 6 7 7 7 7 6 6 7 6 6 6 6 5 6 6 6 6 6 7
3 4 5 4 2 2 4 4 4 3 3 4 4 4 5 5 5 5 6 6 6 7 8 8 9 9 10 10 11 11 11 12 13 12 11 10 12 10 10 8 11 12 19 15 14 8 10 13 14 12 12 11 7 16 18 12 12 11 9 9 8 7 6 7 7 7 7 6 6 6 6 7 7 7 7 6 6 6 6 6 6 6 6 5 5 6 6
4 3 4 4 4 3 3 4 3 3 4 4 4 4 5 5 4 5 6 7 7 7 8 9 9 9 10 11 11 10 10 11 11 10 10 9 10 9 9 6 8 12 20 13 11 9 11 12 11 12 14 12 12 18 12 11 10 9 9 9 9 8 7 6 5 6 7 7 6 6 6 6 5 6 7 7 7 7 6 6 7 7 7 7 6 6 5
4 4 4 4 4 5 4 4 5 4 4 4 5 5 5 5 5 6 6 7 7 7 7 9 9 9 9 10 10 10 10 10 10 11 11 10 10 10 10 9 9 12 13 13 10 10 10 11 12 16 12 11 14 17 11 11 10 9 9 9 9 9 9 8 7 6 6 6 6 6 6 6 6 6 6 6 5 5 6 6 6 6 6 6 6 6 6
4 5 4 3 3 5 4 3 4 3 5 6 5 4 4 5 6 6 6 6 7 6 6 8 8 9 9 10 9 10 11 10 10 11 10 10 9 9 9 10 6 10 18 18 10 8 6 8 11 15 15 14 15 12 9 10 9 8 9 8 9 9 9 8 9 8 7 7 7 6 6 6 6 6 6 6 6 7 7 7 5 4 4 4 5 5 5
5 5 5 4 4 2 3 4 3 4 4 5 6 6 6 6 6 5 6 6 6 7 7 7 8 8 9 10 10 8 10 9 9 9 10 10 9 8 11 14 5 10 12 12 10 10 9 8 10 14 15 15 15 10 9 8 8 8 9 8 8 8 8 8 8 8 8 8 7 7 7 7 6 6 6 7 7 6 4 5 6 7 7 6 6 5 4
5 5 5 5 5 4 4 5 5 6 5 5 5 5 6 6 7 6 6 5 5 5 6 6 6 8 8 8 8 7 6 7 8 9 10 8 8 7 9 10 9 12 14 11 12 11 12 13 14 15 16 16 12 9 10 9 8 8 8 8 9 8 8 8 8 8 8 8 8 8 8 8 8 8 7 6 5 5 6 7 7 6 5 5 5 5 6
5 5 5 5 5 5 5 5 5 5 5 5 4 4 6 7 7 7 6 6 7 7 7 7 8 7 6 7 7 6 6 5 4 4 8 8 8 7 8 10 14 16 13 9 9 6 10 13 15 15 17 14 9 10 10 10 10 9 8 8 8 8 8 8 8 8 8 8 8 8 7 8 8 8 8 8 8 7 7 5 4 4 4 7 7 7 8
5 5 5 4 5 5 5 5 5 4 5 5 5 4 4 6 6 6 6 6 6 7 7 6 5 4 5 6 6 6 6 5 6 5 7 9 7 7 6 9 11 15 16 10 10 7 8 15 14 14 12 8 9 11 8 9 8 9 8 9 8 7 8 9 8 8 6 7 7 7 8 8 8 8 8 7 7 7 8 9 7 11 14 9 7 6 5
4 5 4 5 4 5 6 5 5 5 5 5 5 5 5 5 5 5 6 6 7 7 7 7 6 6 6 6 6 8 7 7 5 5 3 7 8 8 7 10 13 14 14 12 10 8 7 7 7 10 10 10 10 9 8 8 8 8 8 8 9 8 8 6 5 6 6 6 6 6 5 4 5 5 6 7 8 8 8 8 7 5 5 5 5 6 6
4 3 3 3 4 4 4 5 5 4 4 4 4 6 6 5 5 5 5 6 6 7 7 7 7 7 5 5 5 6 6 7 5 5 4 3 4 5 8 14 8 11 13 9 10 9 7 9 11 13 12 10 9 9 9 10 8 8 8 9 9 9 8 7 6 5 5 5 4 5 6 6 6 7 6 6 5 5 4 4 4 4 6 5 6 6 6
Wind_Direction
201 193 203 179 181 205 195 211 203 212 204 202 230 244 214 187 215 251 132 133 139 156 152 171 147 132 151 155 143 130 134 133 132 140 149 150 158 158 161 160 160 162 164 164 162 165 165 163 154 155 158 150 140 139 142 146 144 141 140 137 133 131 128 126 124 121 119 117 117 114 112 109 104 101 99 102 105 98 85 74 74 87 90 83 78 72 69
241 216 169 171 190 204 211 199 201 208 211 201 211 236 239 226 218 240 183 156 168 172 163 181 149 144 151 155 140 137 142 149 149 155 158 166 166 169 170 168 166 166 165 162 163 165 167 169 158 153 149 141 138 147 146 144 144 142 140 136 135 134 131 127 128 128 126 128 122 116 114 112 109 105 99 96 93 89 86 87 79 78 89 87 76 70 63
223 202 177 216 270 208 199 200 203 209 211 211 204 213 219 219 244 219 235 214 215 167 161 178 140 146 143 157 150 161 158 157 157 163 162 165 169 172 170 169 167 168 165 165 164 163 166 162 161 162 143 148 150 143 142 148 144 143 142 140 136 135 132 133 128 129 130 125 128 119 109 110 115 108 101 94 87 84 82 84 90 94 91 90 83 71 67
241 215 105 266 267 193 201 203 203 208 210 215 200 212 201 215 215 207 218 226 212 134 150 166 158 144 156 167 157 161 164 165 166 169 171 169 171 170 172 169 168 167 167 168 167 166 162 162 161 150 143 151 151 144 149 149 144 146 143 141 140 138 136 135 136 133 132 130 123 124 124 118 114 114 114 107 99 99 100 96 89 85 88 96 94 84 73
180 199 251 237 2 163 204 203 193 196 211 217 206 215 214 216 217 203 203 221 180 181 165 182 145 150 157 166 170 162 167 166 168 171 176 176 176 173 170 173 172 167 164 155 154 158 160 169 168 160 146 150 155 150 151 145 148 144 142 145 141 136 138 138 134 134 134 130 127 123 118 115 113 111 107 105 102 98 95 93 87 81 77 85 102 101 86
188 173 206 206 191 203 208 299 284 266 214 191 207 207 207 206 202 230 215 225 253 168 169 201 158 148 163 173 176 165 160 163 170 177 183 179 177 176 169 174 165 154 154 157 162 165 168 170 168 161 144 160 141 147 146 148 147 146 146 143 140 141 139 136 136 134 129 127 121 116 116 116 116 110 108 103 106 105 103 94 89 87 82 82 97 101 97
212 187 162 203 225 227 84 333 260 251 269 269 223 226 209 204 202 215 225 214 234 216 185 180 154 148 168 170 165 176 171 169 173 177 180 184 176 177 175 174 170 164 162 166 170 174 176 164 153 146 143 135 141 147 148 148 148 147 146 144 144 138 135 136 136 133 129 123 122 123 120 117 113 111 113 124 121 120 116 116 114 104 93 82 72 97 105
210 203 182 199 212 88 67 34 352 353 313 274 276 249 239 240 206 194 213 219 227 216 213 208 182 181 185 186 179 178 177 174 170 171 176 178 178 177 175 170 168 167 169 171 172 169 151 138 133 142 147 148 149 147 150 150 150 148 147 144 138 138 136 136 134 132 130 125 121 121 121 119 120 120 119 113 109 107 104 100 100 101 95 83 70 67 99
217 200 200 207 120 136 138 133 218 194 218 217 215 255 232 234 249 213 206 210 230 214 212 227 177 175 187 189 171 171 172 175 176 173 172 165 165 166 167 169 166 167 168 166 150 149 143 143 148 155 155 151 150 150 154 153 152 149 146 142 140 138 137 137 136 131 127 126 124 127 126 124 121 119 121 124 120 123 116 113 109 105 104 92 74 60 41
223 202 209 203 202 222 173 213 185 199 229 230 206 232 255 224 230 226 224 215 226 224 236 214 178 165 188 182 166 172 171 168 167 168 170 162 158 157 159 152 155 156 160 154 149 152 150 148 158 157 157 152 156 156 155 155 151 148 146 142 142 141 139 136 132 132 132 131 130 128 129 127 126 128 126 120 123 133 131 137 135 134 129 118 111 85 69
196 244 233 210 223 210 214 192 195 176 203 182 198 202 241 214 232 223 216 219 222 225 230 222 126 153 184 189 177 166 163 161 164 166 166 146 152 156 148 150 155 161 160 160 161 155 154 158 160 153 153 156 157 158 156 156 151 148 147 144 146 142 138 139 136 132 130 130 131 129 123 124 129 128 123 115 112 113 125 134 142 141 130 132 130 130 118
220 229 234 251 228 69 4 136 171 165 177 165 183 228 237 223 216 215 214 218 220 211 227 157 149 162 186 192 179 152 160 165 163 170 162 157 160 164 153 154 166 165 163 167 162 157 161 165 150 157 159 163 159 158 159 154 151 149 147 147 142 139 139 136 133 128 128 129 126 125 126 128 131 126 132 146 159 163 168 153 135 121 117 110 121 137 156
218 213 223 241 220 73 138 86 100 125 163 189 211 217 226 4 328 233 200 213 215 215 212 156 173 180 175 19 145 154 155 157 163 157 144 151 159 162 161 167 162 167 167 163 159 158 163 156 154 156 160 162 157 159 155 153 151 148 147 144 142 140 136 133 131 128 123 124 123 125 129 126 122 124 128 131 137 114 92 85 87 100 138 157 153 155 156
211 209 237 223 259 107 128 114 128 145 145 197 221 359 298 324 330 322 227 214 210 215 198 158 167 93 92 120 131 144 153 156 158 140 142 148 152 158 162 163 165 162 163 161 158 161 160 166 149 158 164 155 159 156 155 153 149 146 146 141 138 137 137 133 127 125 127 123 125 127 129 130 130 122 127 141 140 134 110 120 156 180 182 160 157 160 169
229 213 213 204 226 163 188 136 149 164 231 82 94 189 279 319 6 347 319 297 266 228 126 83 86 120 126 127 137 142 149 152 154 151 155 154 159 162 161 165 163 157 162 164 164 159 165 158 152 170 161 158 158 155 156 150 146 147 140 140 140 138 134 128 126 125 124 129 127 131 130 133 130 134 154 156 141 122 146 161 161 167 172 183 159 161 157
224 205 228 237 27 132 158 161 186 181 51 15 41 337 134 8 10 285 36 311 298 98 99 113 120 118 126 132 134 142 146 154 153 151 151 153 154 157 157 157 155 158 162 165 164 163 157 152 167 165 161 159 156 158 151 147 146 141 140 143 142 136 131 128 125 127 132 133 131 129 137 136 139 149 150 149 165 174 190 186 180 188 171 181 160 134 129
225 303 72 90 71 77 99 83 89 78 87 49 10 17 47 63 35 342 79 61 59 98 110 119 131 133 137 141 147 149 158 158 161 153 150 153 157 153 161 164 156 164 167 166 159 157 153 163 168 161 162 159 158 155 147 148 144 145 145 144 140 133 133 133 131 139 141 138 139 139 145 149 152 160 167 186 171 190 208 190 172 166 163 139 156 123 126
62 96 112 115 117 130 95 102 93 116 106 52 20 42 67 56 62 32 114 150 124 123 124 130 132 147 147 148 159 156 160 161 159 156 151 155 151 151 162 159 158 167 166 165 164 158 161 169 162 160 161 160 158 148 147 146 146 147 146 139 135 138 140 139 144 147 144 144 146 150 156 155 155 170 186 200 169 198 174 167 170 144 81 74 117 115 115
81 176 142 208 158 137 172 111 111 50 29 73 44 79 64 62 61 63 101 149 141 134 132 141 150 148 159 159 158 160 158 162 156 160 152 153 155 161 165 154 162 172 170 163 167 157 162 166 160 160 158 161 153 146 150 148 149 149 143 138 139 141 139 146 151 148 144 152 151 159 175 165 181 174 197 199 145 176 154 154 124 104 116 146 98 91 114
207 269 65 52 89 169 171 163 191 228 175 108 82 77 68 80 71 66 58 94 134 132 135 146 152 156 160 163 158 162 164 162 152 153 156 161 153 163 161 152 168 175 174 163 168 161 167 163 160 160 160 161 153 153 151 152 151 146 141 145 146 145 146 150 148 147 150 138 143 167 180 190 172 172 190 168 175 68 46 43 24 140 148 103 66 43 31
222 188 114 292 185 161 222 212 241 34 140 137 123 84 112 124 102 92 116 82 123 133 130 146 151 155 160 157 161 164 163 164 161 170 158 161 166 162 159 162 177 178 170 164 153 165 164 160 160 159 161 157 154 154 154 154 151 144 143 145 145 144 148 151 147 145 139 144 158 170 192 189 128 57 57 254 107 82 54 72 69 32 28 67 56 32 2
246 14 54 34 8 143 86 16 20 60 68 60 92 133 208 141 124 109 115 114 115 130 138 149 150 152 149 150 159 167 170 167 169 171 147 151 157 156 159 167 185 175 173 162 156 165 160 160 160 158 159 152 154 155 156 154 148 144 144 145 141 147 152 148 143 143 144 162 175 179 190 170 110 77 43 65 96 107 107 70 84 79 81 94 96 36 358
87 77 70 56 121 52 352 0 341 17 64 12 90 114 145 88 77 107 127 128 137 144 138 148 154 156 157 147 166 153 176 167 157 164 142 154 157 166 165 164 189 176 173 149 159 162 160 158 159 158 155 152 154 157 156 153 143 144 148 144 146 150 152 148 151 152 151 173 196 177 176 183 133 118 104 51 82 117 129 155 136 126 115 129 114 119 114
89 37 49 72 93 136 251 324 20 350 105 299 312 317 33 74 122 124 159 135 155 151 154 154 160 156 157 161 166 181 169 163 175 160 133 145 155 168 158 168 180 168 155 152 161 159 160 159 159 157 151 152 155 158 151 138 139 146 149 146 148 149 147 150 156 164 157 172 204 186 165 194 148 150 138 130 87 27 137 153 154 148 148 162 171 170 199
85 86 86 79 90 121 174 192 202 62 35 336 349 325 44 38 152 136 169 155 154 177 151 163 158 170 185 172 174 185 141 151 157 138 143 152 155 161 160 172 179 161 156 158 159 159 161 159 157 156 152 154 157 148 135 135 142 148 151 146 145 154 156 156 167 179 164 168 199 200 169 181 161 156 160 165 160 163 333 26 46 150 217 201 211 222 227
165 151 143 143 153 144 119 222 124 88 94 249 175 64 60 40 8 94 173 103 184 155 182 164 188 205 194 147 164 188 149 147 147 127 154 150 156 161 166 170 152 136 131 136 151 161 162 158 156 155 154 152 144 137 135 137 144 145 153 157 162 175 167 155 167 184 182 165 184 201 189 179 177 171 176 176 178 172 168 174 196 266 243 236 232 233 244
111 120 236 188 192 155 61 31 88 81 77 44 40 94 82 112 5 316 141 197 213 207 193 162 202 229 167 150 152 146 126 118 133 149 145 147 149 139 126 112 114 120 123 128 128 139 156 154 149 143 141 137 137 138 139 144 144 154 165 176 168 176 161 147 167 175 208 172 177 190 200 190 195 190 189 183 171 169 177 180 187 201 208 222 224 216 223
154 115 333 53 69 72 90 93 84 150 127 144 120 191 135 148 182 218 191 158 179 247 199 224 206 102 99 84 92 101 105 104 91 101 104 91 85 97 114 116 118 123 122 114 114 112 116 139 137 138 139 144 145 141 147 148 153 162 171 184 175 163 167 153 160 177 203 186 175 186 203 186 194 196 201 201 156 171 187 180 187 196 204 205 201 214 217
120 95 89 69 94 101 95 109 149 113 98 82 266 21 139 191 175 208 177 189 196 196 196 228 116 107 103 107 115 116 110 113 115 111 110 111 106 107 116 116 109 105 112 121 133 139 142 140 124 140 146 149 146 148 152 152 156 165 174 180 179 167 171 171 167 173 199 204 172 191 188 178 186 191 208 176 183 190 201 189 187 206 207 174 191 173 204
102 96 106 111 147 128 162 176 154 146 136 171 198 210 189 214 217 207 196 160 201 205 220 194 89 96 110 119 123 123 123 122 117 114 113 119 120 117 122 119 116 114 112 112 125 141 152 152 146 151 151 149 148 152 156 160 164 171 174 181 191 172 165 175 177 168 192 201 175 177 167 179 195 194 198 178 175 202 218 199 197 182 200 171 160 186 198
108 102 67 60 92 212 274 111 107 125 156 129 114 248 170 223 277 244 162 156 174 193 107 123 108 107 106 111 106 104 102 106 114 119 123 125 126 133 136 138 137 146 147 145 149 164 152 149 152 149 151 156 163 171 170 167 176 173 178 180 201 158 157 159 183 175 185 201 169 178 176 191 202 205 177 186 180 195 197 228 179 183 201 248 236 209 204
139 156 178 201 207 193 196 114 108 144 96 67 195 233 217 219 196 244 249 152 168 122 129 128 129 128 121 117 118 114 110 110 113 117 122 129 127 138 139 134 128 131 140 142 151 164 161 160 157 156 162 172 177 186 183 170 178 177 180 178 187 145 152 156 191 192 184 193 169 170 168 189 213 213 197 189 198 182 200 201 214 192 198 209 220 232 241
219 199 205 200 217 215 274 93 77 85 131 143 269 322 259 182 260 179 223 165 147 120 129 134 141 126 125 129 143 129 126 126 125 124 127 130 136 139 137 132 134 136 142 147 158 170 173 166 167 166 171 183 183 189 178 170 178 179 181 173 192 154 155 164 186 206 212 197 177 170 178 185 207 219 220 198 200 226 208 207 211 227 241 242 244 253 74
236 256 338 360 258 240 219 209 173 150 111 111 25 308 195 194 247 211 261 96 173 152 133 136 133 124 118 140 142 132 138 137 141 143 141 141 144 142 139 137 139 142 146 155 172 174 169 180 177 176 176 180 175 180 177 177 182 178 179 173 186 141 161 167 175 193 208 221 200 171 178 177 199 211 217 199 205 203 213 228 220 223 216 217 213 224 165
264 291 332 321 357 106 142 330 326 146 99 61 166 243 139 222 181 225 58 170 148 130 124 123 124 125 126 134 143 142 161 164 152 146 146 146 145 142 143 141 138 145 157 173 182 175 169 167 164 171 176 172 174 181 188 174 182 176 181 175 185 147 163 167 181 186 203 207 226 204 192 186 189 202 216 216 208 202 211 206 220 219 225 238 253 220 169
247 285 357 241 256 185 44 63 348 339 338 81 191 163 206 145 192 102 136 156 108 119 127 132 130 127 140 164 149 163 166 142 139 141 144 145 140 138 141 141 142 146 157 168 162 146 152 169 169 182 168 171 194 194 184 171 177 177 183 179 192 154 169 168 179 186 197 208 209 226 203 198 205 194 198 213 230 236 214 202 198 210 219 233 240 233 159
87 247 234 235 272 53 50 80 284 188 209 208 258 117 113 123 183 104 148 108 119 128 142 134 135 149 171 163 171 160 132 139 147 146 144 142 140 142 145 146 149 153 156 158 163 159 172 179 167 187 193 188 189 187 171 164 173 182 183 189 196 187 169 174 182 189 199 207 213 204 216 205 200 212 208 216 222 223 235 244 220 203 204 206 210 223 206
145 240 220 159 86 92 162 260 22 64 146 268 27 81 131 143 142 121 174 123 125 140 146 147 151 159 153 159 137 119 136 144 144 145 144 148 148 148 151 157 163 161 163 162 158 163 185 189 180 189 197 193 179 179 164 172 187 200 191 197 192 201 185 173 180 188 192 200 210 211 202 207 211 214 208 214 220 231 228 220 224 229 231 212 209 204 209
157 253 144 89 88 124 248 131 94 335 17 228 165 143 142 148 94 142 150 141 137 136 146 167 162 142 138 155 138 135 128 128 136 139 144 148 156 157 164 166 170 165 156 158 170 175 188 185 176 189 195 192 184 192 170 182 194 210 208 196 196 194 197 197 183 180 189 189 195 213 213 208 207 211 215 213 210 211 212 221 229 229 226 239 239 230 210
119 253 120 122 176 137 184 121 113 136 113 185 176 156 146 147 149 161 133 134 132 147 171 178 167 139 145 147 146 143 145 150 156 155 156 156 157 163 160 170 175 174 170 166 180 182 190 196 193 195 198 207 197 190 167 179 189 211 222 204 194 202 200 200 207 195 185 187 190 187 209 214 212 211 211 216 219 214 214 210 212 220 228 231 234 236 237
152 212 135 183 150 150 165 159 169 126 148 155 177 152 162 167 169 179 154 156 142 178 177 162 167 162 157 152 151 148 151 156 162 164 163 162 164 169 173 178 177 178 174 178 186 182 193 204 203 201 199 209 221 178 168 175 182 201 217 220 199 199 210 207 204 207 205 195 195 195 199 208 211 208 214 215 224 226 228 227 221 210 207 214 222 232 240
172 167 173 226 164 134 175 157 159 165 152 159 164 139 138 169 184 173 162 148 154 194 160 167 166 163 154 149 143 148 152 160 166 172 176 175 171 169 174 187 179 188 179 179 192 187 186 194 200 201 203 201 219 150 160 170 182 186 204 219 230 207 202 203 207 208 209 212 204 206 205 209 212 217 211 215 218 225 232 235 236 232 232 225 218 214 213
237 179 171 195 116 150 179 169 188 169 154 148 159 162 150 180 186 176 147 146 169 179 171 155 136 145 151 151 147 151 157 163 171 177 183 180 184 180 186 194 187 178 166 186 194 195 185 190 190 199 196 200 178 143 160 167 184 187 201 208 230 235 229 207 199 204 209 216 216 222 217 209 206 212 216 218 222 222 224 227 236 242 246 241 238 228 227
216 224 185 193 169 183 187 172 176 181 163 162 160 158 172 173 188 189 160 158 185 189 173 148 160 163 165 158 157 158 161 167 173 178 184 184 195 203 207 203 182 158 163 183 191 195 193 191 191 187 186 182 150 155 166 175 186 193 199 207 214 222 234 234 224 211 209 209 215 223 227 228 222 221 214 214 217 222 220 219 222 222 227 233 243 247 247
196 220 206 210 168 159 222 184 181 171 164 154 163 169 178 175 190 201 184 166 183 198 192 156 168 167 173 163 167 166 167 171 176 175 181 183 191 204 206 220 179 159 179 188 196 194 190 189 177 172 163 142 155 168 170 181 189 198 199 202 207 211 216 225 228 226 226 230 225 219 222 227 228 227 233 234 225 219 218 220 224 225 224 225 224 227 227
185 203 209 204 210 180 200 198 184 171 166 162 164 149 200 196 201 199 200 189 190 187 206 173 171 181 176 173 175 168 165 174 179 185 190 188 187 199 193 204 179 158 175 189 207 197 203 190 152 163 157 156 159 176 190 188 194 199 206 208 205 205 209 212 216 221 222 224 230 236 236 232 232 237 236 231 224 224 231 231 242 244 242 234 230 230 233
187 193 196 192 217 208 184 223 188 167 181 172 186 169 181 200 214 204 198 202 202 191 209 204 173 182 194 184 179 189 166 170 181 186 196 201 190 200 158 171 170 162 175 183 184 185 194 179 166 167 161 164 164 183 195 214 207 207 205 214 214 213 208 214 213 216 217 222 224 226 232 240 246 238 229 229 236 235 230 216 217 226 235 244 255 264 272
187 200 185 184 199 195 199 225 206 195 201 197 189 180 173 194 206 210 204 205 205 207 208 224 199 185 200 205 191 204 203 179 178 183 193 206 205 182 159 176 157 171 181 190 180 187 171 157 166 165 166 168 174 194 201 214 220 223 217 214 214 219 218 216 214 217 220 219 213 217 221 226 234 244 252 251 245 229 223 225 227 225 227 223 221 222 232
189 201 188 182 198 189 196 216 222 207 206 201 202 214 172 179 195 209 203 205 209 212 209 214 214 205 195 212 209 201 209 195 193 196 174 206 218 200 171 149 157 166 179 191 186 175 160 163 166 168 169 170 183 194 209 214 221 224 229 227 221 217 221 225 223 216 217 217 221 219 221 220 223 224 227 229 237 247 257 259 246 226 217 217 222 225 227
188 192 196 185 199 194 198 210 221 217 212 203 202 216 191 177 196 200 203 208 207 209 210 204 204 194 193 196 212 226 220 201 189 202 171 180 195 203 171 138 162 171 179 187 196 174 161 166 168 169 169 182 187 197 204 213 216 218 227 230 235 234 226 219 223 221 220 220 218 217 218 221 225 225 225 228 227 224 221 223 230 238 244 245 235 237 240
193 202 208 194 201 198 193 214 226 216 219 207 203 204 204 195 213 206 194 196 208 207 215 204 210 212 203 198 202 213 225 223 208 195 185 175 185 201 177 165 164 168 180 183 193 186 157 166 159 173 178 190 192 198 203 206 215 218 217 226 228 239 241 226 212 222 226 233 243 250 245 240 231 233 227 229 223 223 226 229 228 227 218 220 226 231 237
219 217 224 203 201 199 195 206 221 225 236 237 217 203 208 209 209 209 189 155 211 213 208 214 209 200 204 194 191 203 211 223 223 198 190 210 177 204 137 151 166 176 182 183 190 195 173 169 168 173 183 189 200 201 202 206 211 221 218 215 220 228 232 239 239 237 237 238 235 243 245 251 260 269 271 273 268 260 249 245 237 230 229 233 235 235 236